| time (UTC) | temp F | wind direction | speed MPH | gust MPH | rain 1hr in | rain 24hr in | rain mn in | humidity % | barometer mb |
| 20260906183113 | 72 | 196 | 1.0 | 5.0 | 0.03 | 0.07 | 0.07 | 94 | 1018.4 |
| 20260906181604 | 72 | 179 | 6.0 | 11.0 | 0.00 | 0.04 | 0.04 | 94 | 1018.6 |
| 20260906180122 | 72 | 153 | 6.0 | 12.0 | 0.00 | 0.04 | 0.04 | 94 | 1018.4 |
| 20260906174626 | 72 | 137 | 8.0 | 13.0 | 0.00 | 0.04 | 0.04 | 94 | 1018.4 |
| 20260906173107 | 72 | 148 | 6.0 | 12.0 | 0.00 | 0.04 | 0.04 | 95 | 1018.3 |
| 20260906171615 | 72 | 126 | 5.0 | 12.0 | 0.01 | 0.04 | 0.04 | 95 | 1018.5 |
| 20260906170119 | 72 | 140 | 8.0 | 13.0 | 0.04 | 0.04 | 0.04 | 95 | 1018.2 |
| 20260906164601 | 71 | 126 | 8.0 | 12.0 | 0.04 | 0.04 | 0.04 | 95 | 1018.1 |
| 20260906163105 | 71 | 118 | 5.0 | 11.0 | 0.04 | 0.04 | 0.04 | 95 | 1018.5 |
| 20260906161623 | 72 | 121 | 6.0 | 12.0 | 0.03 | 0.03 | 0.03 | 94 | 1018.3 |
| 20260906160104 | 71 | 122 | 5.0 | 9.0 | 0.00 | 0.00 | 0.00 | 93 | 1018.3 |
| 20260906154605 | 72 | 125 | 4.0 | 9.0 | 0.00 | 0.00 | 0.00 | 93 | 1018.4 |
| 20260906153119 | 72 | 136 | 5.0 | 11.0 | 0.00 | 0.00 | 0.00 | 93 | 1018.2 |
| 20260906151601 | 72 | 119 | 5.0 | 9.0 | 0.00 | 0.00 | 0.00 | 93 | 1018.3 |
| 20260906150110 | 72 | 138 | 4.0 | 11.0 | 0.00 | 0.00 | 0.00 | 93 | 1018.3 |
| 20260906144603 | 72 | 128 | 5.0 | 11.0 | 0.00 | 0.00 | 0.00 | 94 | 1018.0 |
| 20260906143101 | 72 | 133 | 6.0 | 12.0 | 0.00 | 0.00 | 0.00 | 94 | 1018.1 |
| 20260906141622 | 71 | 127 | 5.0 | 12.0 | 0.00 | 0.00 | 0.00 | 95 | 1018.2 |
| 20260906140104 | 70 | 113 | 6.0 | 11.0 | 0.00 | 0.00 | 0.00 | 95 | 1018.3 |
| 20260906134601 | 70 | 126 | 6.0 | 11.0 | 0.00 | 0.00 | 0.00 | 96 | 1017.9 |
| 20260906133110 | 70 | 117 | 7.0 | 13.0 | 0.00 | 0.00 | 0.00 | 96 | 1018.0 |
| 20260906131610 | 69 | 119 | 4.0 | 8.0 | 0.00 | 0.00 | 0.00 | 97 | 1018.0 |
| 20260906130105 | 68 | 119 | 5.0 | 9.0 | 0.00 | 0.00 | 0.00 | 97 | 1017.8 |
| 20260906124606 | 68 | 114 | 4.0 | 9.0 | 0.00 | 0.00 | 0.00 | 97 | 1017.8 |
| 20260906123109 | 68 | 109 | 2.0 | 8.0 | 0.00 | 0.00 | 0.00 | 96 | 1017.8 |
| 20260906121614 | 68 | 103 | 3.0 | 7.0 | 0.00 | 0.00 | 0.00 | 96 | 1017.6 |
| 20260906120120 | 67 | 113 | 3.0 | 7.0 | 0.00 | 0.00 | 0.00 | 96 | 1017.6 |
| 20260906114600 | 68 | 110 | 3.0 | 7.0 | 0.00 | 0.00 | 0.00 | 96 | 1017.6 |
| 20260906113103 | 68 | 107 | 3.0 | 8.0 | 0.00 | 0.00 | 0.00 | 96 | 1017.2 |
| 20260906111600 | 68 | 115 | 3.0 | 8.0 | 0.00 | 0.00 | 0.00 | 96 | 1017.6 |
| 20260906110059 | 68 | 115 | 3.0 | 7.0 | 0.00 | 0.00 | 0.00 | 96 | 1017.6 |
| 20260906104604 | 68 | 118 | 2.0 | 6.0 | 0.00 | 0.00 | 0.00 | 96 | 1017.7 |
| 20260906103109 | 67 | 107 | 1.0 | 3.0 | 0.00 | 0.00 | 0.00 | 96 | 1017.7 |
| 20260906101620 | 67 | 106 | 1.0 | 4.0 | 0.00 | 0.00 | 0.00 | 96 | 1017.6 |
| 20260906094606 | 68 | 108 | 2.0 | 6.0 | 0.00 | 0.00 | 0.00 | 96 | 1017.0 |
| 20260906093100 | 68 | 113 | 2.0 | 4.0 | 0.00 | 0.00 | 0.00 | 96 | 1016.9 |
| 20260906091606 | 68 | 113 | 1.0 | 3.0 | 0.00 | 0.00 | 0.00 | 96 | 1017.0 |
| 20260906090107 | 68 | 113 | 1.0 | 3.0 | 0.00 | 0.00 | 0.00 | 96 | 1016.8 |
| 20260906084605 | 68 | 113 | 1.0 | 3.0 | 0.00 | 0.00 | 0.00 | 96 | 1016.7 |
| 20260906083107 | 69 | 0 | 1.0 | 3.0 | 0.00 | 0.00 | 0.00 | 96 | 1016.8 |
| 20260906081606 | 69 | 113 | 2.0 | 4.0 | 0.00 | 0.00 | 0.00 | 96 | 1016.8 |
| 20260906080103 | 69 | 115 | 2.0 | 6.0 | 0.00 | 0.00 | 0.00 | 95 | 1016.6 |
| 20260906074604 | 69 | 114 | 2.0 | 7.0 | 0.00 | 0.00 | 0.00 | 95 | 1016.5 |
| 20260906073102 | 69 | 111 | 3.0 | 7.0 | 0.00 | 0.00 | 0.00 | 95 | 1016.8 |
| 20260906071605 | 70 | 106 | 3.0 | 7.0 | 0.00 | 0.00 | 0.00 | 95 | 1016.8 |
| 20260906070104 | 70 | 108 | 3.0 | 8.0 | 0.00 | 0.00 | 0.00 | 95 | 1016.9 |
| 20260906064603 | 70 | 101 | 3.0 | 9.0 | 0.00 | 0.00 | 0.00 | 95 | 1016.8 |
| 20260906063104 | 70 | 105 | 5.0 | 8.0 | 0.00 | 0.00 | 0.00 | 95 | 1016.6 |
| 20260906061605 | 70 | 94 | 3.0 | 8.0 | 0.00 | 0.00 | 0.00 | 95 | 1016.9 |
| 20260906060136 | 71 | 111 | 4.0 | 8.0 | 0.00 | 0.00 | 0.00 | 95 | 1017.1 |
| 20260906054616 | 71 | 128 | 3.0 | 8.0 | 0.00 | 0.00 | 0.00 | 95 | 1017.1 |
| 20260906053101 | 71 | 121 | 4.0 | 9.0 | 0.00 | 0.00 | 0.00 | 95 | 1016.9 |
| 20260906051600 | 71 | 114 | 3.0 | 8.0 | 0.00 | 0.00 | 0.00 | 95 | 1017.0 |
| 20260906050104 | 71 | 94 | 3.0 | 8.0 | 0.00 | 0.00 | 0.00 | 94 | 1017.0 |
| 20260906044601 | 71 | 113 | 5.0 | 11.0 | 0.00 | 0.00 | 0.00 | 95 | 1017.0 |
| 20260906043058 | 71 | 90 | 3.0 | 7.0 | 0.00 | 0.00 | 0.00 | 94 | 1016.9 |
| 20260906041602 | 71 | 99 | 4.0 | 8.0 | 0.00 | 0.00 | 0.00 | 94 | 1017.0 |
| 20260906040106 | 72 | 98 | 4.0 | 9.0 | 0.00 | 0.00 | 0.00 | 94 | 1016.7 |
| 20260906034606 | 72 | 109 | 4.0 | 8.0 | 0.00 | 0.00 | 0.00 | 93 | 1016.7 |
| 20260906033100 | 72 | 99 | 4.0 | 9.0 | 0.00 | 0.00 | 0.00 | 93 | 1016.6 |
| 20260906031604 | 72 | 107 | 4.0 | 9.0 | 0.00 | 0.00 | 0.00 | 93 | 1016.7 |
| 20260906024618 | 73 | 105 | 3.0 | 8.0 | 0.00 | 0.00 | 0.00 | 93 | 1017.0 |
| 20260906023104 | 73 | 135 | 1.0 | 4.0 | 0.00 | 0.00 | 0.00 | 93 | 1017.0 |
| 20260906021606 | 73 | 137 | 2.0 | 4.0 | 0.00 | 0.00 | 0.00 | 93 | 1017.0 |
| 20260906020107 | 73 | 139 | 1.0 | 3.0 | 0.00 | 0.00 | 0.00 | 93 | 1016.7 |
| 20260906014607 | 73 | 139 | 1.0 | 3.0 | 0.00 | 0.00 | 0.00 | 93 | 1016.5 |
| 20260906013101 | 74 | 139 | 1.0 | 2.0 | 0.00 | 0.00 | 0.00 | 92 | 1016.1 |
| 20260906011607 | 74 | 139 | 1.0 | 2.0 | 0.00 | 0.00 | 0.00 | 91 | 1016.0 |
| 20260906010145 | 75 | 140 | 2.0 | 5.0 | 0.00 | 0.00 | 0.00 | 89 | 1015.8 |
| 20260906004618 | 76 | 144 | 4.0 | 10.0 | 0.00 | 0.00 | 0.00 | 88 | 1015.7 |
| 20260906003104 | 77 | 142 | 5.0 | 9.0 | 0.00 | 0.00 | 0.00 | 88 | 1015.8 |
| 20260906001607 | 78 | 143 | 4.0 | 8.0 | 0.00 | 0.00 | 0.00 | 87 | 1015.6 |
| 20260905234606 | 79 | 131 | 4.0 | 9.0 | 0.00 | 0.00 | 0.00 | 86 | 1015.4 |
| 20260905233102 | 79 | 132 | 4.0 | 9.0 | 0.00 | 0.00 | 0.00 | 86 | 1015.4 |
| 20260905231609 | 80 | 137 | 4.0 | 9.0 | 0.00 | 0.00 | 0.00 | 85 | 1015.5 |
| 20260905230106 | 80 | 140 | 6.0 | 10.0 | 0.00 | 0.00 | 0.00 | 85 | 1015.3 |
| 20260905224617 | 80 | 132 | 4.0 | 10.0 | 0.00 | 0.00 | 0.00 | 85 | 1015.0 |
| 20260905223108 | 81 | 125 | 4.0 | 12.0 | 0.00 | 0.00 | 0.00 | 84 | 1014.9 |
| 20260905221602 | 82 | 109 | 6.0 | 13.0 | 0.00 | 0.00 | 0.00 | 84 | 1014.8 |
| 20260905220104 | 82 | 107 | 7.0 | 11.0 | 0.00 | 0.00 | 0.00 | 83 | 1014.7 |
| 20260905214604 | 81 | 116 | 5.0 | 11.0 | 0.00 | 0.00 | 0.00 | 85 | 1014.9 |
| 20260905213101 | 81 | 85 | 5.0 | 12.0 | 0.00 | 0.00 | 0.00 | 85 | 1014.9 |
| 20260905211613 | 81 | 98 | 7.0 | 14.0 | 0.00 | 0.00 | 0.00 | 83 | 1015.0 |
| 20260905210120 | 82 | 100 | 6.0 | 15.0 | 0.00 | 0.00 | 0.00 | 84 | 1014.9 |
| 20260905204602 | 80 | 82 | 8.0 | 15.0 | 0.00 | 0.00 | 0.00 | 85 | 1015.0 |
| 20260905203115 | 80 | 123 | 8.0 | 14.0 | 0.00 | 0.00 | 0.00 | 86 | 1015.2 |
| 20260905201605 | 80 | 84 | 8.0 | 17.0 | 0.00 | 0.00 | 0.00 | 85 | 1015.0 |
| 20260905200130 | 79 | 112 | 8.0 | 14.0 | 0.00 | 0.00 | 0.00 | 87 | 1015.2 |
| 20260905194601 | 78 | 94 | 7.0 | 14.0 | 0.00 | 0.00 | 0.00 | 88 | 1015.4 |
| 20260905193123 | 77 | 101 | 6.0 | 15.0 | 0.00 | 0.00 | 0.00 | 89 | 1015.4 |
| 20260905191604 | 76 | 111 | 7.0 | 13.0 | 0.00 | 0.00 | 0.00 | 89 | 1015.7 |
| 20260905190105 | 76 | 73 | 5.0 | 11.0 | 0.00 | 0.00 | 0.00 | 89 | 1015.9 |
| 20260905184612 | 76 | 112 | 4.0 | 11.0 | 0.00 | 0.00 | 0.00 | 90 | 1015.9 |